Location: *
(42.4476°S, 179.4124°W)
Time: 00:31:37
(UTC+00:00)

Daily predictions for brighter satellites

Satellite Brightness Start Highest point End
(mag) Time Altitude Azimuth Time Altitude Azimuth Time Altitude Azimuth
Cosmos 923 Rocket 4.1 06:24:29 10° N 06:29:39 62° ENE 06:34:56 10° SSE
FengYun 1-2 T 4.4 06:25:15 10° SSE 06:30:43 55° E 06:36:08 10° N
Envisat 3.7 06:26:11 10° S 06:31:17 62° WSW 06:36:20 10° NNW
Cosmos 1470 3.6 06:28:47 10° SSE 06:32:27 31° ESE 06:36:03 10° NE
Cosmos 1766 3.5 06:29:46 10° SSW 06:33:43 74° W 06:37:37 10° N
AQUARIUS 4.3 06:29:42 10° SSE 06:34:17 84° WSW 06:38:49 10° NNW
Cosmos 2369 Rocket 3.0 06:29:28 10° S 06:34:30 32° SE 06:39:29 10° ENE
Cosmos 1437 2.6 06:34:31 10° N 06:37:28 55° E 06:40:29 10° SSE
Cosmos 158 Rocket 3.9 06:33:15 10° N 06:38:05 61° ENE 06:42:57 10° SSE
CZ-4B R/B 3.6 06:32:59 10° S 06:38:25 71° WSW 06:43:52 10° NNW
Cosmos 1603 4.4 06:33:59 10° NNE 06:38:47 30° ENE 06:43:37 10° SE
DMSP B5D2-2 4.1 06:34:36 10° NNE 06:39:48 64° ESE 06:45:03 10° S
Okean-O 3.5 06:39:04 10° SE 06:42:59 29° E 06:46:52 10° NNE
Cosmos 1025 Rocket 4.2 06:39:39 10° NE 06:43:10 24° E 06:46:41 10° SE
Cosmos 1707 3.5 06:41:09 10° NNE 06:44:39 32° E 06:48:14 10° SSE
CORIOLIS 4.3 06:39:12 10° SSE 06:44:45 83° WSW 06:50:13 10° NNW
Cosmos 1842 3.4 06:42:32 10° N 06:46:31 81° W 06:50:34 10° S
Cosmos 2297 4.0 06:40:58 10° SSW 06:46:48 78° WNW 06:52:33 10° NNE
IRS-1C Rocket 4.2 06:45:00 10° SSE 06:50:14 54° E 06:55:24 10° N
CZ-2D R/B 3.8 06:46:35 10° SSE 06:50:17 38° E 06:53:57 10° NNE
USA 305 3.3 06:46:57 10° WSW 06:51:19 63° NW 06:55:37 10° NE
Hubble Space Telescope 3.3 06:50:42 10° NNW 06:51:44 11° N 06:52:46 10° N
CZ-2C R/B 2.8 06:46:20 10° NNE 06:51:54 88° WNW 06:57:25 10° SSW
USA 306 3.5 06:51:36 10° WSW 06:55:55 58° NW 07:00:10 10° NE
Meteor 2-10 4.4 06:55:37 10° S 07:01:19 56° ESE 07:06:59 10° NNE
Cosmos 1536 Rocket 4.4 06:59:00 10° NNE 07:02:52 29° E 07:06:44 10° SSE
Cosmos 1900 4.5 07:00:07 10° N 07:04:58 51° ENE 07:09:47 10° SE
Helios 1A Rocket 2.9 07:00:58 10° SSE 07:05:03 62° E 07:09:07 10° N
Okean O Rocket 3.6 07:01:26 10° S 07:05:28 33° WSW 07:09:29 10° NW
Cosmos 1953 3.3 07:02:03 10° SSE 07:05:44 29° ESE 07:07:40 20° ENE
SL-24 R/B 4.2 07:01:16 10° SSE 07:06:07 75° ENE 07:10:31 10° N
CZ-4 R/B 4.4 07:02:38 10° SSE 07:06:50 66° ENE 07:10:58 10° N
CZ-2C R/B 3.5 07:03:45 10° SSE 07:08:07 32° E 07:12:32 10° NNE
Cosmos 1455 Rocket 3.1 07:09:12 10° S 07:13:46 88° W 07:18:16 10° N
ERBS 4.2 07:12:00 10° SSW 07:14:28 18° SSE 07:15:32 16° SE
Cosmos 1371 Rocket 4.0 07:10:45 10° SSW 07:16:04 70° ESE 07:20:46 13° NNE
CZ-4 R/B 1.4 07:13:23 10° SSE 07:17:36 63° ENE 07:21:48 10° N
Lacrosse 5 1.9 07:13:21 10° SW 07:18:33 77° SE 07:21:40 24° NE
Genesis I 3.5 07:14:43 10° SSW 07:18:35 51° SE 07:20:12 30° ENE
Nadezhda 4 Rocket 4.2 07:12:57 10° NNE 07:18:54 48° E 07:24:59 10° SSE
EO 1 Delta rocket 3.9 07:15:34 11° NNE 07:20:03 54° ESE 07:24:41 10° S
Atlas Centaur 2 3.7 07:15:01 10° NW 07:20:15 23° N 07:22:39 18° NE
Cosmos 2112 Rocket 4.3 07:15:44 10° NNW 07:21:05 73° WSW 07:26:32 10° SSE
Cosmos 1680 Rocket 4.1 07:16:52 10° NNW 07:22:09 61° WSW 07:27:31 10° SSE
Cosmos 1943 Rocket 2.4 07:16:32 10° SSW 07:22:16 75° WNW 07:27:56 10° NNE
SeaSat 1 2.4 07:17:17 10° SSE 07:22:16 70° ENE 07:27:12 10° NNW
OAO 3 Rocket 4.4 07:18:43 10° WNW 07:22:46 29° N 07:24:52 20° NNE
Cosmos 1674 3.8 07:23:45 25° ESE 07:23:45 25° ESE 07:26:15 10° SSE
USA 307 4.4 07:22:00 10° WSW 07:25:58 33° NW 07:29:18 13° NNE
GEOS 3 Rocket 4.1 07:21:40 10° SSE 07:26:41 62° SW 07:31:41 10° NW
Cosmos 1758 3.5 07:24:16 10° SSW 07:28:19 72° W 07:32:18 10° N
USA 308 4.5 07:25:36 10° WSW 07:29:30 31° NW 07:32:41 13° N
Cosmos 2056 Rocket 3.5 07:24:33 10° SSW 07:30:03 80° ESE 07:34:07 18° NNE
H-2A R/B 2.3 07:26:54 10° SSE 07:31:38 40° E 07:34:28 21° NNE
Cosmos 1420 Rocket 4.3 07:27:07 10° S 07:32:17 47° ESE 07:34:21 31° ENE
ATLAS 5 CENTAUR R/B 1.8 07:26:53 10° SW 07:32:21 88° NW 07:34:50 28° NNE
CZ-2C R/B 3.9 07:28:52 10° N 07:33:38 78° WNW 07:38:31 10° SSW
Cosmos 1726 2.0 07:30:17 10° S 07:34:01 86° E 07:35:58 26° N
FALCON 9 DEB 3.9 07:31:29 10° SW 07:34:53 40° SSE 07:35:25 37° SE
SL-16 R/B 4.3 07:31:29 10° WNW 07:36:20 28° SW 07:41:15 10° S
HJ-1C 4.2 07:33:51 10° SSE 07:36:07 34° SE 07:36:07 34° SE
ARGOS 3.6 07:34:32 10° SSE 07:39:33 36° E 07:40:26 34° ENE
YAOGAN 1 2.6 07:37:59 10° SSE 07:42:25 86° WSW 07:46:47 10° NNW
Cosmos 371 Rocket 3.2 07:38:07 10° SSW 07:43:04 81° ESE 07:45:16 33° NNE
Cosmos 1452 Rocket 3.9 07:44:10 10° S 07:49:13 42° ESE 07:49:59 39° E
Cosmos 332 Rocket 3.7 07:45:04 10° SSW 07:49:55 65° ESE 07:51:02 49° NE
Cosmos 1908 3.7 07:47:49 10° S 07:51:08 45° SE 07:51:08 45° SE
Cosmos 1943 3.3 07:48:05 10° NNW 07:53:49 80° WSW 07:59:37 10° SSE
Cosmos 2084 Rocket 4.0 07:51:48 10° NNW 07:55:15 44° NNE 07:55:15 44° NNE
SL-4 R/B 1.8 07:53:26 10° SW 07:56:34 67° SSW 07:56:34 67° SSW
Meteor 1-16 Rocket 4.2 07:51:41 10° S 07:57:25 89° W 08:00:54 26° N
Cosmos 1356 Rocket 3.3 08:02:10 10° S 08:06:05 80° S 08:06:05 80° S
Cosmos 1818 3.5 08:01:27 10° SSW 08:06:53 68° SE 08:07:37 60° E
Meteor 2-5 Rocket 3.9 08:07:43 52° ENE 08:08:12 54° E 08:14:03 10° SSE
BREEZE-M R/B 4.0 08:00:08 10° WSW 08:08:24 42° NW 08:09:52 32° N
BREEZE-M DEB (TANK) 4.4 08:06:14 10° WSW 08:08:07 21° WNW 08:08:07 21° WNW
KORONAS-FOTON 4.3 08:15:01 56° SSW 08:15:01 56° SSW 08:18:18 10° S
Cosmos 2369 Rocket 3.3 08:13:22 10° SW 08:18:35 40° WNW 08:21:48 21° NNW
Cosmos 2195 Rocket 4.3 08:18:22 43° N 08:20:31 78° E 08:26:45 10° S
Cosmos 304 Rocket 3.7 08:16:26 10° SSW 08:21:18 88° SW 08:21:18 88° SW
Cosmos 2026 Rocket 3.9 08:22:07 60° NE 08:23:06 70° E 08:29:20 10° SSE
Cosmos 1092 Rocket 4.0 08:22:02 21° N 08:26:29 84° W 08:32:58 10° S
Cosmos 1627 Rocket 4.3 08:25:39 55° NNE 08:27:07 79° E 08:33:24 10° S
Cosmos 1428 Rocket 4.3 08:29:25 72° NE 08:29:48 74° E 08:35:59 10° S
BREEZE-M DEB (TANK) 4.5 08:36:13 10° WNW 08:41:51 76° SSW 09:05:31 10° ESE
SME Rocket 4.0 08:42:07 69° N 08:42:58 84° WNW 08:51:23 10° SSW
Cosmos 2228 4.5 08:48:19 10° SSW 08:51:05 36° SSW 08:51:05 36° SSW
Ariane Rocket 4.2 08:48:59 10° SSE 08:51:51 34° SSE 08:51:51 34° SSE
Aureole 3 Rocket 4.5 08:46:02 10° S 08:55:24 85° W 08:56:39 67° N
Lacrosse 5 4.0 08:57:26 10° WSW 09:00:54 19° WNW 09:00:54 19° WNW
Atlas Centaur 2 4.4 09:03:55 10° WNW 09:05:16 15° NW 09:05:16 15° NW
H-2A R/B 4.0 09:06:48 10° SSW 09:10:50 25° WSW 09:14:47 10° WNW
Cosmos 1553 Rocket 4.4 09:12:48 10° S 09:17:45 57° SSW 09:17:45 57° SSW
USA 267 4.1 09:51:14 46° S 09:51:14 46° S 09:56:12 10° SW
